User: anonymous   Login
Location: Mt. Cuba Astronomical Observatory
(39.8100°N, 75.6300°W)
Time: 01:59:58
(UTC-04:00)
Language:

Cosmos 2058 - Orbit

View from above orbital plane
View from above orbital plane
View from above satellite
View from above satellite

Ground track
Ground track

The orbit data is extracted from the following two-line orbital elements,

1 20465U 90010A   15147.76711758  .00000969  00000-0  82987-4 0  9999
2 20465 082.4915 249.8240 0014580 307.0299 052.9588 14.96438449372916
Epoch (UTC): 27 May 2015 18:24:38
Eccentricity: 0.0014580
inclination: 82.4915°
perigee height: 568 km
apogee height: 588 km
right ascension of ascending node: 249.8240°
argument of perigee: 307.0299°
revolutions per day: 14.96438449
mean anomaly at epoch: 52.9588°
orbit number at epoch: 37291

The dashed part of the orbit path shows where the satellite is in the earth's shadow,  

DLR